Weather History for Curtin, WE

Change the Weather History Date:

Sunday, April 6, 2014

  Actual Average Record
Temperature  
Mean Temperature 84 °F -  
Max Temperature 96 °F - - ()
Min Temperature 73 °F - - ()
Cooling Degree Days 20    
Growing Degree Days 34 (Base 50)    
Moisture  
Dew Point 76 °F    
Average Humidity 82    
Maximum Humidity 100    
Minimum Humidity 41    
Precipitation  
Precipitation 0.16 in - - ()
Sea Level Pressure  
Sea Level Pressure 29.84 in    
Wind  
Wind Speed 4 mph ()    
Max Wind Speed 15 mph    
Max Gust Speed -    
T = Trace of Precipitation, MM = Missing Value Source: Averaged Metar Reports

Daily Weather History Graph

Daily Weather History Graph

Search for Another Location

Airport:

Trip Planner

Search our weather history database for the weather conditions in past years. The results will help you decide how hot, cold, wet, or windy it might be!

Date:

Astronomy

Apr. 06, 2014 Rise Set
Actual Time 5:51 AM AWST 5:42 PM AWST
Civil Twilight 5:30 AM AWST 6:04 PM AWST
Nautical Twilight 5:04 AM AWST 6:29 PM AWST
Astronomical Twilight 4:39 AM AWST 6:54 PM AWST
Moon 11:24 AM AWST (4/6) 10:57 PM AWST (4/6)
Length of Visible Light 12h 34m
Length of Day
11h 50m
Waxing Crescent, 39% of the Moon is Illuminated
Apr 6
Waxing Crescent
Apr 7
First Quarter
Apr 15
Full
Apr 22
Last Quarter
Apr 29
New

Hourly Weather History & Observations

Time (AWST) Temp. Heat Index Dew Point Humidity Pressure Visibility Wind Dir Wind Speed Gust Speed Precip Events Conditions
12:00 AM 80 °F - 76 °F 82% 29.84 in - WNW 4.6 mph - -  
12:00 AM 80.6 °F 86.2 °F 75.2 °F 84% 29.83 in - WNW 4.6 mph - N/A   Unknown
1:00 AM 80.6 °F 86.2 °F 75.2 °F 84% 29.83 in - West 5.8 mph - N/A   Unknown
2:00 AM 78.8 °F - 75.2 °F 89% 29.83 in - NNW 3.5 mph - N/A   Unknown
3:00 AM 77 °F - 76 °F 95% 29.83 in - North 4.6 mph - -  
3:00 AM 77.0 °F - 75.2 °F 94% 29.83 in - North 4.6 mph - N/A   Unknown
4:00 AM 77.0 °F - 77.0 °F 100% 29.83 in - North 3.5 mph - N/A   Unknown
4:59 AM 77.0 °F - 77.0 °F 100% 29.86 in - Calm Calm - N/A   Mostly Cloudy
5:00 AM 77.0 °F - 77.0 °F 100% 29.86 in - Calm Calm - N/A   Mostly Cloudy
5:28 AM 77.0 °F - 77.0 °F 100% 29.86 in - West 4.6 mph - N/A   Scattered Clouds
5:33 AM 78.8 °F - 77.0 °F 94% 29.86 in - WSW 4.6 mph - N/A   Mostly Cloudy
6:00 AM 78 °F - 78 °F 100% 29.87 in - WSW 5.8 mph - -  
6:00 AM 78.8 °F - 78.8 °F 100% 29.86 in - WSW 5.8 mph - N/A   Scattered Clouds
6:08 AM 78.8 °F - 78.8 °F 100% 29.86 in - WSW 5.8 mph - N/A   Scattered Clouds
7:00 AM 78.8 °F - 78.8 °F 100% 29.89 in - WSW 3.5 mph - N/A   Unknown
8:00 AM 84.2 °F 94.1 °F 77.0 °F 79% 29.89 in - West 6.9 mph - N/A   Mostly Cloudy
9:00 AM 89 °F - 76 °F 57% 29.89 in - WSW 6.9 mph - -  
9:00 AM 87.8 °F 97.6 °F 75.2 °F 66% 29.89 in - WSW 6.9 mph - N/A   Unknown
10:00 AM 91.4 °F 100.1 °F 73.4 °F 55% 29.89 in - West 5.8 mph - N/A   Unknown
11:00 AM 95.0 °F 101.3 °F 69.8 °F 44% 29.86 in - WNW 8.1 mph - N/A   Unknown
12:00 PM 94 °F - 73 °F 41% 29.82 in - WSW 6.9 mph - -  
12:00 PM 95.0 °F 104.5 °F 73.4 °F 49% 29.83 in - WSW 6.9 mph - N/A   Scattered Clouds
1:00 PM 89.6 °F 96.2 °F 71.6 °F 55% 29.80 in - NNW 6.9 mph - N/A   Scattered Clouds
1:30 PM 80.6 °F 84.6 °F 71.6 °F 74% 29.80 in - NNW 15.0 mph - N/A   Overcast
2:00 PM 84.2 °F 90.9 °F 73.4 °F 70% 29.77 in - NNE 6.9 mph - N/A   Mostly Cloudy
3:00 PM 82 °F - 72 °F 66% 29.76 in - North 6.9 mph - -  
3:00 PM 82.4 °F 87.2 °F 71.6 °F 70% 29.77 in - North 6.9 mph - N/A   Unknown
4:00 PM 77.0 °F - 73.4 °F 89% 29.77 in - WNW 6.9 mph - N/A   Overcast
5:00 PM 80.6 °F 87.1 °F 77.0 °F 89% 29.80 in - SSE 3.5 mph - N/A   Scattered Clouds
6:00 PM 80 °F - 76 °F 85% 29.82 in - Calm Calm - -  
6:00 PM 78.8 °F - 77.0 °F 94% 29.83 in - Calm Calm - N/A   Unknown
7:00 PM 80.6 °F 88.1 °F 78.8 °F 94% 29.86 in - North 3.5 mph - N/A   Scattered Clouds
8:00 PM 80.6 °F 88.1 °F 78.8 °F 94% 29.86 in - Calm Calm - N/A   Unknown
9:00 PM 81 °F - 76 °F 80% 29.85 in - West 4.6 mph - -  
9:00 PM 80.6 °F 86.2 °F 75.2 °F 84% 29.86 in - West 4.6 mph - N/A   Unknown
10:00 PM 78.8 °F - 77.0 °F 94% 29.83 in - NNE 4.6 mph - N/A   Unknown
11:00 PM 77.0 °F - 75.2 °F 94% 29.83 in - NNE 1.2 mph - N/A   Unknown